This is the latest recevied weather packets stored in our database for station/object W5ITZ. If no packets are shown the sender has not sent any weather packets the latest 10 day(s).
| Time | Temp. | Humidity | Pressure | Rain* | Wind** | Luminosity | Snow |
|---|---|---|---|---|---|---|---|
| 1778177952 | 20.56° C | 78% | 1015.6 hPa | 0 mm | - | 250 W/m² | - |
| 1778177648 | 20° C | 78% | 1016 hPa | 0 mm | - | 202 W/m² | - |
| 1778177345 | 20.56° C | 77% | 1015.8 hPa | 0 mm | - | 170 W/m² | - |
| 1778177042 | 20.56° C | 78% | 1016.1 hPa | 0 mm | - | 177 W/m² | - |
| 1778176738 | 20.56° C | 76% | 1015.8 hPa | 0 mm | - | 220 W/m² | - |
| 1778176434 | 20.56° C | 76% | 1015.7 hPa | 0 mm | - | 215 W/m² | - |
| 1778176132 | 20.56° C | 76% | 1015.7 hPa | 0 mm | - | 235 W/m² | - |
| 1778175829 | 21.11° C | 76% | 1015.7 hPa | 0 mm | - | 391 W/m² | - |
| 1778175527 | 20.56° C | 76% | 1015.3 hPa | 0 mm | - | 610 W/m² | - |
| 1778175224 | 20.56° C | 77% | 1015.7 hPa | 0 mm | - | 390 W/m² | - |
| 1778174920 | 20.56° C | 77% | 1015.9 hPa | 0 mm | - | 460 W/m² | - |
| 1778174617 | 20° C | 78% | 1015.8 hPa | 0 mm | - | 535 W/m² | - |
| 1778174313 | 20° C | 79% | 1015.8 hPa | 0 mm | - | 501 W/m² | - |
| 1778174010 | 20° C | 78% | 1016 hPa | 0 mm | - | 311 W/m² | - |
| 1778173707 | 20° C | 80% | 1016.2 hPa | 0 mm | - | 363 W/m² | - |
| 1778173403 | 20° C | 80% | 1016.1 hPa | 0 mm | - | 338 W/m² | - |
| 1778173099 | 19.44° C | 81% | 1015.9 hPa | 0 mm | - | 287 W/m² | - |
| 1778172795 | 19.44° C | 81% | 1016 hPa | 0 mm | - | 229 W/m² | - |
| 1778172491 | 19.44° C | 81% | 1016.1 hPa | 0 mm | - | 219 W/m² | - |
| 1778172189 | 19.44° C | 82% | 1016.3 hPa | 0 mm | - | 245 W/m² | - |
| 1778171886 | 19.44° C | 83% | 1016 hPa | 0 mm | - | 248 W/m² | - |
| 1778171584 | 19.44° C | 83% | 1016.2 hPa | 0 mm | - | 216 W/m² | - |
| 1778171279 | 19.44° C | 83% | 1016.1 hPa | 0 mm | - | 185 W/m² | - |
| 1778170975 | 18.89° C | 85% | 1016.1 hPa | 0 mm | - | 177 W/m² | - |
| 1778170673 | 18.89° C | 84% | 1016.2 hPa | 0 mm | - | 182 W/m² | - |
* Rain latest hour (hover to see other rain measurements)
** Current wind speed in m/s (hover to see current wind gust speed)